Location: Sceptre
(50.8619°N, 109.2670°W)
Time: 00:30:16
(UTC+00:00)

Envisat - Pass Details

Date: 31 January 2022
Orbit: 764 x 765 km, 98.2° (Epoch: 22 May)

Event Time Altitude Azimuth Distance (km) Brightness Sun altitude
Rises 00:48:31 0° 219° (SW) 3,220 7.3 -7.1°
Reaches altitude 10° 00:52:05 10° 246° (WSW) 2,301 7.2 -7.6°
Maximum altitude 00:54:31 13° 275° (W) 2,074 6.4 -8.0°
Drops below altitude 10° 00:56:58 10° 304° (NW) 2,309 6.1 -8.3°
Sets 01:00:35 0° 331° (NNW) 3,242 6.4 -8.9°
